Regional Weather Roundup
Issued by NWS

Home | Current Version | Previous Version | Text Only | Print | Product List | Glossary On
Versions: 1 2 3 4 5 6 7 8 9 10 11 12 13 14 15 16 17 18 19 20 21 22 23 24 25 26 27
000
ASUS45 KPSR 220310
RWRAZ

ARIZONA HOURLY REGIONAL WEATHER ROUNDUP
NATIONAL WEATHER SERVICE PHOENIX AZ
800 PM MST TUE NOV 21 2017

NOTE: FAIR INDICATES FEW OR NO CLOUDS BELOW 12,000 FEET WITH NO
SIGNIFICANT WEATHER AND/OR OBSTRUCTIONS TO VISIBILITY.

AZZ001>003-036-220400-
NORTHWEST ARIZONA

CITY           SKY/WX    TMP DP  RH WIND       PRES   REMARKS
BULLHEAD CITY  PTCLDY    73  12   9 N20       30.10S
KINGMAN        PTCLDY    58  18  21 E8        30.25R
$$

AZZ004>008-015-016-018-220400-
NORTH CENTRAL ARIZONA

CITY           SKY/WX    TMP DP  RH WIND       PRES   REMARKS
GRAND CANYON   PTCLDY    39  21  48 NE3       30.41R
WILLIAMS       PTCLDY    46  27  46 SE6       30.40R
PRESCOTT       PTCLDY    60  27  28 S6        30.29R
FLAGSTAFF      PTCLDY    42  25  50 CALM      30.41S
PAYSON         PTCLDY    57  23  26 E3        30.31R
PAGE           PTCLDY    50  19  29 CALM      30.34R
$$

AZZ009>014-017-220400-
NORTHEAST ARIZONA

CITY           SKY/WX    TMP DP  RH WIND       PRES   REMARKS
WINSLOW        MOCLDY    44  11  26 W6        30.34R
SAINT JOHNS    PTCLDY    44  16  32 S6        30.34R
WINDOW ROCK    CLEAR     48  25  40 N5        30.41R
SHOW LOW       PTCLDY    46  18  31 E5        30.39R
$$

AZZ540-542>544-546-548-220400-
GREATER PHOENIX AREA

CITY           SKY/WX    TMP DP  RH WIND       PRES   REMARKS
PHOENIX        MOCLDY    73  30  20 NW5       30.06R
BUCKEYE        PTCLDY    68  18  14 NW6       30.07S
GLENDALE       MOCLDY    66  30  26 CALM      30.08R
LUKE AFB       PTCLDY    62  35  36 N5        30.06R
DEER VALLEY    MOCLDY    67  26  21 N6        30.08R
SCOTTSDALE     MOCLDY    69  32  25 N5        30.10R
MESA-GATEWAY   CLEAR     64  27  24 NW6       30.09R
CHANDLER       CLEAR     66  32  28 CALM      30.07S
$$

AZZ539-553-220400-
SOUTHWEST MARICOPA COUNTY AND PINAL COUNTY

CITY           SKY/WX    TMP DP  RH WIND       PRES   REMARKS
CASA GRANDE    NOT AVBL
GILA BEND      MOCLDY    68  18  14 SW2       30.06S
$$

AZZ503-504-507>509-220400-
SOUTHEAST ARIZONA

CITY           SKY/WX    TMP DP  RH WIND       PRES   REMARKS
TUCSON         CLEAR     64  24  21 S5        30.15R
DAVIS-MONTHAN  PTCLDY    59  22  24 SE6       30.13R
RYAN FIELD     CLEAR     63  23  22 S3        30.14R
NOGALES        CLEAR     59  21  23 S5        30.17R
SIERRA VISTA   CLEAR     58  16  19 SE5       30.24R
DOUGLAS        PTCLDY    57  15  19 N9        30.20R
SAFFORD        PTCLDY    56  10  16 E5        30.14R
$$

AZZ532-220400-
SOUTHWEST ARIZONA

CITY           SKY/WX    TMP DP  RH WIND       PRES   REMARKS
YUMA           MOCLDY    74  15  10 N5        30.05R
$$

CAZ041-043-047-048-061-525>527-560>570-220400-
SOUTHERN CALIFORNIA

CITY           SKY/WX    TMP DP  RH WIND       PRES   REMARKS
DOWNTOWN L.A.  CLEAR     70  47  43 CALM      30.01S
L.A. AIRPORT   CLEAR     69  55  60 CALM      30.02S
SAN DIEGO      PTCLDY    68  56  65 CALM      30.03R
BURBANK        CLEAR     75  35  23 NW5       30.05R
ONTARIO        PTCLDY    76  35  22 CALM      30.06R
RIVERSIDE      CLEAR     77  33  20 E3        30.06R
PALM SPRINGS   CLEAR     73  29  19 CALM      30.08R
EL CENTRO NAS  PTCLDY    67  38  34 CALM      30.05S
IMPERIAL       PTCLDY    67  39  35 CALM      30.03S
BLYTHE         CLOUDY    70  17  13 SW5       30.07R
$$

NVZ020-UTZ003-220400-
SOUTHERN NEVADA-UTAH

CITY           SKY/WX    TMP DP  RH WIND       PRES   REMARKS
LAS VEGAS      CLOUDY    65  22  19 SW3       30.21R
SALT LAKE CITY MOCLDY    53  43  68 SE5       30.35F
$$

NMZ009-TXZ055-220400-
NEW MEXICO-WEST TEXAS

CITY           SKY/WX    TMP DP  RH WIND       PRES   REMARKS
ALBUQUERQUE    PTCLDY    54  20  26 E16       30.33R
EL PASO        PTCLDY    61  18  18 E6        30.26R
$$


........................KEY........................
SKY/WX - SKY CONDITION/WEATHER
TMP    - TEMPERATURE IN FAHRENHEIT
DP     - DEW POINT IN FAHRENHEIT
RH     - RELATIVE HUMIDITY IN PERCENT
WIND   - DIRECTION AND SPEED IN MILES PER HOUR (MPH)
VRB    - VARIABLE WIND DIRECTION
PRES   - MEAN SEA LEVEL PRESSURE IN INCHES OF MERCURY
         F - FALLING PRESSURE   R - RISING PRESSURE
         S - STEADY PRESSURE
VSB    - VISIBILITY IN MILES
HX     - HEAT INDEX IN FAHRENHEIT
WCI    - WIND CHILL INDEX IN FAHRENHEIT
TC     - TEMPERATURE IN CELSIUS WHICH IS ALSO KNOWN AS
         TEMPERATURE IN CENTIGRADE
AFB    - AIR FORCE BASE
         LUKE AFB IS LUKE AIR FORCE BASE
         DAVIS-MONTHAN IS DAVIS-MONTHAN AIR FORCE BASE
NAS    - NAVAL AIR STATION
         EL CENTRO NAS IS EL CENTRO NAVAL AIR STATION
N/A    - NOT AVAILABLE





USA.gov is the U.S. government's official web portal to all federal, state and local government web resources and services.